Regional Weather Roundup
Issued by NWS

Home | Current Version | Previous Version | Graphics & Text | Print | Product List | Glossary On
Versions: 1 2 3 4 5 6 7 8 9 10 11 12 13 14 15 16 17 18 19 20 21 22 23 24 25 26 27 28 29 30 31 32 33 34 35 36 37 38 39 40 41 42 43 44 45 46 47 48 49 50
000
ASUS43 KLMK 300110
RWRKY
KENTUCKY REGIONAL WEATHER ROUNDUP
NATIONAL WEATHER SERVICE LOUISVILLE KY
900 PM EDT MON SEP 29 2014

NOTE "FAIR" INDICATES FEW OR NO CLOUDS BELOW 12,000 FEET
WITH NO SIGNIFICANT WEATHER AND/OR OBSTRUCTIONS TO VISIBILITY.

KYZ001>023-026-027-061>063-070>075-300200-
WESTERN AND SOUTH CENTRAL KENTUCKY

CITY           SKY/WX    TMP DP  RH WIND       PRES   REMARKS
PADUCAH        CLEAR     64  59  83 CALM      29.94R
HENDERSON      NOT AVBL
OWENSBORO      CLEAR     73  57  57 CALM      29.95R
HOPKINSVILLE   CLEAR     74  56  53 NE2       29.94S
BOWLING GREEN  CLEAR     71  57  61 CALM      29.94S
GLASGOW        CLEAR     67  58  74 CALM      29.95R
$$

KYZ024-025-028>034-038-045-046-053-300200-
NORTH CENTRAL KENTUCKY

CITY           SKY/WX    TMP DP  RH WIND       PRES   REMARKS
LOUISVILLE/SDF CLEAR     74  54  49 NW5       29.94R
LOUISVILLE/LOU CLEAR     71  56  58 CALM      29.95R
FORT KNOX      CLEAR     65  55  71 N3        29.95R
$$

KYZ035>037-039>044-047>052-055>060-089>105-300200-
NORTHEAST KENTUCKY

CITY           SKY/WX    TMP DP  RH WIND       PRES   REMARKS
LEXINGTON      CLEAR     72  53  51 CALM      29.96R
COVINGTON      NOT AVBL
FRANKFORT      CLEAR     63  54  72 CALM      29.94R
$$

KYZ054-064>069-076>088-106>120-300200-
SOUTHEAST KENTUCKY

CITY           SKY/WX    TMP DP  RH WIND       PRES   REMARKS
JACKSON        CLEAR     69  61  75 S3        29.97R
LONDON         PTCLDY    69  63  81 CALM      29.97S
SOMERSET       CLEAR     68  63  83 CALM      29.97R
MIDDLESBORO    PTCLDY    66  62  85 CALM      29.98R
MONTICELLO     CLEAR     63  60  90 CALM      29.98R
$$



USA.gov is the U.S. government's official web portal to all federal, state and local government web resources and services.